Date String (YYYY-MM-DD hh:mm:ss) UTC,Instrument flags,Ambient pressure (hPa),Sample flow (lpm),Bypass flow (lpm),Sample temperature (°C),Ambient temperature (°C),ASC tube jacket temperature (°C),LED temperature (°C),Box temperature (°C),Sample RH (%),Span deviation,Mass concentration (μg/m³),Mass concentration (μg/m³),Mass concentration (μg/m³)
DateTimeUTC,F1_M11,P_M11,Q1_M11,Q2_M11,T1_M11,T2_M11,T3_M11,T4_M11,T5_M11,U1_M11,ZSPAN_M11,X0_M11,X2_M11,X1_M11
2021-12-16 11:00:00,,0820.5,5.01,0.00,21.9,22.1,00.0,31.0,23.6,06.9,0000.0,0001.16,0000.45,0000.17
2021-12-16 11:01:00,,0820.4,4.99,0.00,22.0,22.9,00.0,31.0,23.9,06.8,0000.0,0001.22,0000.48,0000.18
2021-12-16 11:02:00,,0820.6,5.00,0.00,22.1,22.8,00.0,31.0,24.0,06.8,0000.0,0001.14,0000.46,0000.18
2021-12-16 11:03:00,,0820.7,4.99,0.00,22.1,22.5,00.0,31.1,23.8,06.8,0000.0,0001.17,0000.46,0000.18
2021-12-16 11:04:00,,0820.9,5.00,0.00,22.1,22.2,00.0,31.1,23.7,06.7,0000.0,0001.40,0000.48,0000.18
2021-12-16 11:05:00,,0821.0,5.01,0.00,22.0,21.9,00.0,31.0,23.6,06.7,0000.0,0001.42,0000.47,0000.18
2021-12-16 11:06:00,,0820.8,4.98,0.00,22.0,21.7,00.0,31.0,23.5,06.8,0000.0,0001.40,0000.47,0000.18
2021-12-16 11:07:00,,0820.9,5.02,0.00,21.9,21.4,00.0,31.0,23.4,06.9,0000.0,0001.49,0000.51,0000.18
2021-12-16 11:08:00,,0821.2,4.99,0.00,21.8,21.0,00.0,31.0,23.2,06.8,0000.0,0001.64,0000.55,0000.19
2021-12-16 11:09:00,,0821.2,5.00,0.00,21.7,20.8,00.0,30.9,23.0,06.9,0000.0,0001.70,0000.55,0000.19
2021-12-16 11:10:00,,0821.4,5.01,0.00,21.6,20.7,00.0,30.9,22.9,07.0,0000.0,0001.59,0000.51,0000.18
2021-12-16 11:11:00,,0821.2,4.99,0.00,21.6,21.2,00.0,30.9,23.1,07.0,0000.0,0001.47,0000.50,0000.18
2021-12-16 11:12:00,,0821.2,4.99,0.00,21.7,22.1,00.0,30.9,23.4,06.9,0000.0,0001.43,0000.48,0000.18
2021-12-16 11:13:00,,0821.2,5.01,0.00,21.9,22.9,00.0,30.9,23.8,06.9,0000.0,0001.30,0000.46,0000.18
2021-12-16 11:14:00,,0821.0,4.99,0.00,22.0,23.0,00.0,31.0,23.9,06.9,0000.0,0001.30,0000.47,0000.17
2021-12-16 11:15:00,,0820.9,5.01,0.00,22.0,22.5,00.0,31.0,23.7,06.9,0000.0,0001.14,0000.44,0000.18
2021-12-16 11:16:00,,0820.9,5.00,0.00,21.9,22.1,00.0,31.0,23.5,06.9,0000.0,0001.23,0000.44,0000.18
2021-12-16 11:17:00,,0820.9,4.99,0.00,21.9,21.8,00.0,30.9,23.3,06.9,0000.0,0001.31,0000.42,0000.18
2021-12-16 11:18:00,,0821.0,5.00,0.00,21.8,21.4,00.0,30.9,23.2,06.9,0000.0,0001.28,0000.41,0000.19
2021-12-16 11:19:00,,0821.0,5.02,0.00,21.7,21.2,00.0,30.9,23.1,06.9,0000.0,0001.16,0000.38,0000.19
2021-12-16 11:20:00,,0821.2,4.99,0.00,21.6,21.0,00.0,30.9,23.0,06.9,0000.0,0001.10,0000.37,0000.19
2021-12-16 11:21:00,,0821.3,5.00,0.00,21.6,20.9,00.0,30.8,23.0,06.9,0000.0,0001.22,0000.38,0000.19
2021-12-16 11:22:00,,0821.3,5.00,0.00,21.6,20.9,00.0,30.8,23.0,06.9,0000.0,0001.30,0000.39,0000.18
2021-12-16 11:23:00,,0821.1,5.01,0.00,21.5,20.8,00.0,30.8,23.0,07.0,0000.0,0001.28,0000.38,0000.18
2021-12-16 11:24:00,,0821.1,5.01,0.00,21.5,20.7,00.0,30.7,22.9,07.1,0000.0,0001.28,0000.38,0000.18
2021-12-16 11:25:00,,0821.1,5.00,0.00,21.5,21.4,00.0,30.8,23.1,07.1,0000.0,0001.88,0000.36,0000.18
2021-12-16 11:26:00,,0821.1,4.98,0.00,21.7,22.3,00.0,30.8,23.5,07.0,0000.0,0002.04,0000.37,0000.18
2021-12-16 11:27:00,,0821.2,5.00,0.00,21.9,23.1,00.0,30.8,23.9,07.0,0000.0,0001.87,0000.37,0000.18
2021-12-16 11:28:00,,0821.1,5.02,0.00,22.0,23.1,00.0,30.9,24.0,07.0,0000.0,0001.78,0000.37,0000.18
2021-12-16 11:29:00,,0821.1,4.99,0.00,22.0,22.7,00.0,30.9,23.9,06.9,0000.0,0001.67,0000.35,0000.17
2021-12-16 11:30:00,,0821.2,5.00,0.00,22.0,22.4,00.0,30.9,23.8,06.9,0000.0,0001.61,0000.32,0000.17
2021-12-16 11:31:00,,0821.1,5.00,0.00,22.0,22.1,00.0,30.9,23.7,07.0,0000.0,0001.65,0000.34,0000.17
2021-12-16 11:32:00,,0821.0,5.02,0.00,21.9,21.8,00.0,30.9,23.5,07.1,0000.0,0002.40,0000.36,0000.17
2021-12-16 11:33:00,,0820.9,4.99,0.00,21.9,21.6,00.0,30.9,23.4,07.1,0000.0,0002.52,0000.35,0000.18
2021-12-16 11:34:00,,0820.9,5.00,0.00,21.8,21.4,00.0,30.9,23.3,07.1,0000.0,0002.48,0000.34,0000.18
2021-12-16 11:35:00,,0820.8,5.01,0.00,21.8,21.3,00.0,30.9,23.2,07.1,0000.0,0002.51,0000.36,0000.19
2021-12-16 11:36:00,,0821.0,5.00,0.00,21.7,21.1,00.0,30.9,23.2,07.1,0000.0,0002.09,0000.39,0000.19
2021-12-16 11:37:00,,0821.0,5.00,0.00,21.7,21.0,00.0,30.8,23.1,07.1,0000.0,0001.66,0000.36,0000.19
2021-12-16 11:38:00,,0821.0,5.01,0.00,21.6,20.9,00.0,30.8,23.1,07.1,0000.0,0001.64,0000.35,0000.19
2021-12-16 11:39:00,,0821.0,4.99,0.00,21.6,20.9,00.0,30.8,23.1,07.1,0000.0,0001.69,0000.37,0000.19
2021-12-16 11:40:00,,0821.0,4.99,0.00,21.6,20.8,00.0,30.8,23.1,07.2,0000.0,0001.65,0000.35,0000.19
2021-12-16 11:41:00,,0820.9,5.02,0.00,21.5,20.8,00.0,30.7,23.0,07.2,0000.0,0001.67,0000.35,0000.19
2021-12-16 11:42:00,,0820.9,4.99,0.00,21.6,21.4,00.0,30.7,23.2,07.2,0000.0,0001.65,0000.34,0000.19
2021-12-16 11:43:00,,0820.9,5.01,0.00,21.8,22.4,00.0,30.8,23.6,07.1,0000.0,0000.93,0000.32,0000.19
2021-12-16 11:44:00,,0820.9,4.99,0.00,21.9,23.0,00.0,30.8,23.9,07.1,0000.0,0000.60,0000.33,0000.19
2021-12-16 11:45:00,,0820.9,5.01,0.00,22.0,22.7,00.0,30.9,23.9,07.0,0000.0,0000.62,0000.33,0000.19
2021-12-16 11:46:00,,0820.8,5.00,0.00,22.0,22.4,00.0,30.9,23.8,07.0,0000.0,0000.61,0000.32,0000.18
2021-12-16 11:47:00,,0820.8,5.00,0.00,21.9,22.1,00.0,30.9,23.7,07.0,0000.0,0000.57,0000.31,0000.18
2021-12-16 11:48:00,,0820.9,4.99,0.00,21.9,21.8,00.0,30.9,23.6,07.0,0000.0,0000.59,0000.32,0000.18
2021-12-16 11:49:00,,0820.8,5.01,0.00,21.9,21.7,00.0,30.9,23.5,07.0,0000.0,0000.59,0000.31,0000.18
2021-12-16 11:50:00,,0820.9,5.00,0.00,21.9,21.5,00.0,30.9,23.4,07.0,0000.0,0000.59,0000.30,0000.17
2021-12-16 11:51:00,,0820.9,5.00,0.00,21.8,21.4,00.0,30.9,23.4,07.0,0000.0,0000.63,0000.31,0000.17
2021-12-16 11:52:00,,0820.9,5.00,0.00,21.8,21.3,00.0,30.9,23.4,07.1,0000.0,0000.68,0000.33,0000.17
2021-12-16 11:53:00,,0820.8,5.01,0.00,21.8,21.2,00.0,30.8,23.3,07.1,0000.0,0000.71,0000.34,0000.17
2021-12-16 11:54:00,,0820.9,4.99,0.00,21.7,21.1,00.0,30.8,23.3,07.1,0000.0,0000.72,0000.35,0000.17
2021-12-16 11:55:00,,0820.9,5.00,0.00,21.7,21.0,00.0,30.8,23.2,07.1,0000.0,0000.72,0000.34,0000.16
2021-12-16 11:56:00,,0820.8,5.00,0.00,21.7,20.9,00.0,30.8,23.1,07.1,0000.0,0000.69,0000.33,0000.17
2021-12-16 11:57:00,,0820.9,5.02,0.00,21.6,20.9,00.0,30.8,23.1,07.1,0000.0,0000.67,0000.33,0000.17
2021-12-16 11:58:00,,0820.9,4.99,0.00,21.7,21.6,00.0,30.8,23.3,07.1,0000.0,0000.64,0000.32,0000.16
2021-12-16 11:59:00,,0820.9,5.00,0.00,21.8,22.5,00.0,30.8,23.7,07.1,0000.0,0000.62,0000.32,0000.17
